Simultaneous Nadir Overpasses (SNOs) Predictions

Prediction of SNOs between METOP-A and NOAA-19 Satellite Orbit:

Table of predicted SNOs for the next 14.0 days since TLE Epoch: 5/15/2015
Index Date (METOP-A) Time (METOP-A) Lat,Lon (METOP-A) SZA (METOP-A ) Date (NOAA-19) Time (NOAA-19) Lat,Lon (NOAA-19) SZA (NOAA-19 ) Distance(km) Time Diff (sec)
1 05/16/2015 01:56:52 75.41, 148.96 56.34 05/16/2015 01:55:44 75.41, 146.30 56.37 74.30 68
2 05/16/2015 02:47:43 -74.96, -45.04 124.12 05/16/2015 02:46:35 -74.95, -45.05 124.12 0.53 68
3 05/16/2015 03:38:23 74.96, 122.30 55.88 05/16/2015 03:37:37 74.96, 122.18 55.88 3.29 46
4 05/16/2015 04:29:05 -74.94, -70.44 124.16 05/16/2015 04:28:37 -74.92, -70.47 124.17 1.82 28
5 05/16/2015 05:19:46 74.89, 96.76 55.80 05/16/2015 05:19:39 74.92, 96.77 55.83 3.66 7
6 05/16/2015 06:10:27 -74.91, -95.84 124.19 05/16/2015 06:10:39 -74.89, -95.88 124.22 3.13 12
7 05/16/2015 07:01:08 74.87, 71.36 55.76 05/16/2015 07:01:41 74.89, 71.36 55.78 2.32 33
8 05/16/2015 07:51:50 -74.84,-121.37 124.28 05/16/2015 07:52:41 -74.86,-121.29 124.27 2.62 51
9 05/16/2015 08:42:30 74.85, 45.96 55.72 05/16/2015 08:43:43 74.85, 45.95 55.73 1.06 73
10 05/26/2015 13:39:25 75.01, -27.84 53.82 05/26/2015 13:38:10 75.03, -28.00 53.84 5.11 75
11 05/26/2015 14:30:07 -74.99, 139.43 126.21 05/26/2015 14:29:07 -74.97, 139.43 126.23 2.40 60
12 05/26/2015 15:20:48 74.94, -53.38 53.73 05/26/2015 15:20:11 74.95, -53.28 53.75 3.08 37
13 05/26/2015 16:11:29 -74.97, 114.03 126.25 05/26/2015 16:11:09 -74.94, 114.01 126.28 3.40 20
14 05/26/2015 17:02:10 74.92, -78.78 53.70 05/26/2015 17:02:13 74.92, -78.70 53.70 2.53 3
15 05/26/2015 17:52:52 -74.90, 88.49 126.33 05/26/2015 17:53:11 -74.91, 88.59 126.32 3.00 19
16 05/26/2015 18:43:32 74.90,-104.19 53.67 05/26/2015 18:44:15 74.89,-104.11 53.65 2.35 43
17 05/26/2015 19:34:14 -74.88, 63.09 126.36 05/26/2015 19:35:13 -74.88, 63.17 126.36 2.37 59
18 05/26/2015 20:25:01 74.53,-130.51 53.31 05/26/2015 20:26:10 74.53,-128.59 53.27 57.05 69




NCC Satellite Simultaneous Nadir Overpasses (SNOs) Prediction Service
